STARLINK-2519, 48305

Orbit data source: Space-Track

STARLINK-2519, 48305 is a payload satellite owned by SpaceX/Seattle (US) in LEO that was launched on Thu, 29 Apr 2021 UTC via an FALCON 9 launch vehicle from the Air Force Eastern Test Range (AFETR). Payload-class satellites include a variety of spacecraft equipped with specific instruments for various scientific and technological missions. These include communications satellites like Starlink; space stations such as the ISS; scientific satellites like the Hubble; Earth observation satellites from companies like Planet Labs, Umbra, and HawkEye 360; GPS; miniature CubeSats for education and research; and military/defense satellites.

Loading next visibility...
Identifier
48305, 2021-036AF
Orbit
LEO
Country
Flag of USUS
Related business
Manufacturer
SpaceX/Seattle
Mission
Operational Commercial Communications
Bus & Motor
STARLINK, Unknown motor
Mass
260 kg wet, ~248 kg dry
Launch date (UTC)
2021-04-29 (5 years ago)
Launch vehicle
FALCON 9
Launch site
Air Force Eastern Test Range (AFETR)
Object type
Payload
Rocket body
Debris
Shape & HBR
Box + 1 Pan, 10.1 m
Radar Cross Section
13.562 m², Large (>1 m²)

Expand to show TLE details & history
Last TLE update: 10 hours ago

TLE from 10 hours ago
0 STARLINK-2519
1 48305U 21036AF  26095.37232419 -.00003296  00000-0 -20251-3 0  9990
2 48305  53.0539 332.4163 0001401  90.8984 269.2165 15.06394313272189
Epoch: 2026-04-05T08:56Z
TLE epoch observation values (Epoch: 2026-04-05T08:56:08.810Z)
Latitude
-0.00004°
Longitude
4.70087°
Altitude
548.121 km
Speed
7.589 km/s
True Right ascension
22h 09m 39s
True Declination
0° 00' 00"
Sunlit
Object was in daylight at epoch
Visualization orbit readout
Latitude
Unknown
Longitude
Unknown
Altitude
Unknown
Speed
Unknown
Apparent Right ascension
Unknown
Apparent Declination
Unknown
Sunlit
N/A
Visualization observer readout
Local Sidereal Time
01:04:22
Azimuth
Unknown
Elevation
Unknown
Doppler factor
Unknown
Orbital elements
Apogee altitude
548.47 km
Perigee altitude
546.53 km
Semi-major axis
6,925.637 km
Eccentricity
0.00014
Inclination
53.0539°
RAAN
332.4163°
Arg. of periapsis
90.8984°
True anomaly
269.20045°
Mean anomaly
269.2165°
Eccentric anomaly
269.20847°
Mean motion
3.76577 °/min
Orbital period
95.6 mins
BSTAR
-0.00020251
Loading maneuver chart data...
Computing Atmospheric mass density...
Loading historical data...
Loading historical data...
Loading historical data...
Loading historical data...
Loading historical data...
Loading historical data...
Loading historical data...

Documentation

Showing up to 5 results
|